Powrót do katalogu

STARLINK-6369

AktywnyŁącznośćVLEO
NORAD 57374·PAYLOAD·🇺🇸 United States

Wystrzelony Jul 16, 2023 z Cape Canaveral Space Force Station

Loading…

Następne Przeloty (najbliższe 24 godziny)

TLE

ŚwieżeSource: CelesTrak SupGP

Epoka: Sep 14, 2026, 21:56 UTC

1 57374C 23099AY  26257.91437500  .00022112  00000+0  80110-3 0  2577
2 57374  42.9992 235.1138 0000936 252.1581 208.7880 15.27559966    17

Śledź STARLINK-6369 w czasie rzeczywistym z AllMySat

Download on the App Store